Hourly Data Report for October 09, 2015

All times are specified in Local Standard Time (LST). Add 1 hour to adjust for Daylight Saving Time where and when it is observed.

TORONTO INTL A
ONTARIO

43°40'36.000" N
79°37'50.000" W
173.40 m
6158731
71624
YYZ

Download Data

Hourly Data (October 2015)
Hourly Data Report for October 9, 2015
Temp Definition
°C
Dew Point Temp Definition
°C
Rel Hum Definition
%
Wind Dir Definition
10's deg

Wind Spd Definition
km/h
Visibility Definition
km
Stn Press Definition
kPa
Hmdx Definition


Wind Chill Definition


Weather Definition


TIME
00:00 Legend Double Dagger 10.4 9.3 93 5 14 16.1 99.11     Rain
01:00 Legend Double Dagger 10.2 9.3 94 6 8 19.3 99.01     Rain
02:00 Legend Double Dagger 10.9 10.1 95 36 2 16.1 98.95     Rain
03:00 Legend Double Dagger 11.5 10.7 95 8 4 12.9 98.80     Rain
04:00 Legend Double Dagger 11.5 10.7 95 27 4 12.9 98.79     Cloudy
05:00 Legend Double Dagger 11.5 10.7 95 29 8 8.1 98.78     Fog
06:00 Legend Double Dagger 11.6 10.8 95 25 8 6.4 98.78     Fog
07:00 Legend Double Dagger 11.8 11.0 95 25 14 9.7 98.79     Fog
08:00 Legend Double Dagger 14.0 12.9 93 27 13 9.7 98.81     Fog
09:00 Legend Double Dagger 15.6 13.5 87 27 18 9.7 98.87     Fog
10:00 Legend Double Dagger 16.7 13.3 80 28 27 24.1 98.89     Cloudy
11:00 Legend Double Dagger 15.7 10.9 73 30 39 24.1 98.95     LegendNANA
12:00 Legend Double Dagger 15.2 9.8 70 29 26 24.1 99.02     LegendNANA
13:00 Legend Double Dagger 14.7 9.6 71 31 31 24.1 99.07     Mostly Cloudy
14:00 Legend Double Dagger 14.0 LegendMM LegendMM 32 40 24.1 99.15     LegendNANA
15:00 Legend Double Dagger 13.0 6.9 66 33 42 24.1 99.27     LegendNANA
16:00 Legend Double Dagger 12.6 6.9 68 35 34 24.1 99.39     Mostly Cloudy
17:00 Legend Double Dagger 11.8 6.8 71 35 26 24.1 99.51     LegendNANA
18:00 Legend Double Dagger 11.4 7.2 75 33 26 24.1 99.61     LegendNANA
19:00 Legend Double Dagger 10.8 5.8 71 33 21 24.1 99.72     Mainly Clear
20:00 Legend Double Dagger 9.8 4.8 71 31 14 24.1 99.80     LegendNANA
21:00 Legend Double Dagger 8.4 4.4 76 27 11 24.1 99.83     LegendNANA
22:00 Legend Double Dagger 8.0 4.8 80 29 12 24.1 99.90     Mainly Clear
23:00 Legend Double Dagger 7.0 4.3 83 29 11 24.1 99.92     LegendNANA

Notes on Data Quality.

Legend

  • E = Estimated
  • M = Missing
  • NA = Not Available
  • ‡ = Partner data that is not subject to review by the National Climate Archives
Date modified: